Location: Lobos
(35.3000°S, 59.0940°W)
Time: 12:38:33
(UTC-03:00)

CAS-4A - Visible Passes

Search period start: 05 December 2020 00:00
Search period end: 15 December 2020 00:00
Orbit: 528 x 543 km, 43.0° (Epoch: 04 December)

Date Brightness Start Highest point End Pass type
(mag) Time Alt. Az. Time Alt. Az. Time Alt. Az.
05 Dec ? 01:46:47 26° SSE 01:46:47 26° SSE 01:49:31 10° ESE visible
05 Dec ? 03:22:22 10° WSW 03:26:30 63° SSE 03:30:36 10° ENE visible
05 Dec ? 05:02:59 10° W 05:06:26 26° NW 05:09:51 10° NNE visible
05 Dec ? 20:31:10 10° N 20:34:14 20° NE 20:37:17 10° E visible
05 Dec ? 22:09:52 10° WNW 22:14:02 79° SSW 22:16:40 22° ESE visible
05 Dec ? 23:50:51 10° WSW 23:52:11 18° WSW 23:52:11 18° WSW visible
06 Dec ? 01:38:35 13° ESE 01:38:35 13° ESE 01:39:10 10° ESE visible
06 Dec ? 03:14:06 31° SW 03:16:00 78° SSE 03:20:08 10° ENE visible
06 Dec ? 04:52:46 10° W 04:55:49 20° NW 04:58:50 10° N visible
06 Dec ? 21:59:23 10° WNW 22:03:32 65° SSW 22:07:42 10° ESE visible
06 Dec ? 23:40:29 10° WSW 23:44:03 29° S 23:44:03 29° S visible
07 Dec ? 03:07:36 28° ENE 03:07:36 28° ENE 03:09:36 10° ENE visible
07 Dec ? 04:43:12 12° WNW 04:45:11 15° NW 04:47:36 10° N visible
07 Dec ? 21:48:56 10° W 21:53:03 54° SSW 21:57:10 10° ESE visible
07 Dec ? 23:30:06 10° WSW 23:33:45 28° S 23:34:39 26° SSE visible
08 Dec ? 21:38:32 10° W 21:42:34 46° SSW 21:46:37 10° SE visible
08 Dec ? 23:19:42 10° WSW 23:23:20 27° S 23:24:40 23° SSE visible
09 Dec ? 21:28:08 10° W 21:32:06 40° SSW 21:36:04 10° SE visible
09 Dec ? 23:09:17 10° WSW 23:12:55 27° S 23:14:26 22° SE visible
10 Dec ? 00:49:37 10° SW 00:49:45 11° SW 00:49:45 11° SW visible
10 Dec ? 21:17:46 10° W 21:21:39 36° SSW 21:25:32 10° SE visible
10 Dec ? 22:58:50 10° SW 23:02:29 28° S 23:04:05 22° SE visible
11 Dec ? 00:39:04 10° WSW 00:39:24 12° SW 00:39:24 12° SW visible
11 Dec ? 21:07:24 10° WSW 21:11:12 32° SSW 21:15:00 10° SE visible
11 Dec ? 22:48:22 10° SW 22:52:04 29° S 22:53:42 22° SE visible
12 Dec ? 00:28:31 10° WSW 00:29:01 13° WSW 00:29:01 13° WSW visible
12 Dec ? 20:57:02 10° WSW 21:00:46 30° S 21:04:30 10° SE visible
12 Dec ? 22:37:52 10° SW 22:41:38 31° S 22:43:17 23° SE visible
13 Dec ? 00:17:58 10° WSW 00:18:35 14° WSW 00:18:35 14° WSW visible
13 Dec ? 20:46:39 10° WSW 20:50:19 29° S 20:54:01 10° SE visible
13 Dec ? 22:27:21 10° SW 22:31:12 34° SSE 22:32:52 24° SE visible
14 Dec ? 00:07:26 10° WSW 00:08:10 15° WSW 00:08:10 15° WSW visible
14 Dec ? 20:36:16 10° WSW 20:39:54 28° S 20:43:33 10° ESE visible
14 Dec ? 22:16:49 10° SW 22:20:45 37° SSE 22:22:27 26° ESE visible
